Theta_e
322 326 332 335 335 335 340 341 343 342 342 344 344 344 346 348 348 349 349 349 348 346 344 344 339 340 340 340 340 342 341 338 337 337 337 336 334 333 333 337 341 345 344 344
324 328 327 330 330 334 333 335 338 334 338 344 343 344 343 348 348 347 348 349 348 348 347 341 339 339 338 337 337 340 340 339 337 337 336 334 334 333 333 337 343 344 345 347
328 328 325 328 328 330 329 330 329 331 336 340 342 344 345 346 348 348 348 348 348 347 347 347 339 338 338 336 335 336 338 337 336 335 334 334 334 333 333 338 343 343 343 347
324 321 324 326 328 329 334 326 327 329 334 335 340 341 347 346 349 348 347 347 347 347 348 348 343 341 340 337 335 334 335 335 335 334 334 334 334 334 337 340 341 343 344 345
325 322 323 325 326 327 331 325 326 328 335 343 342 341 344 343 348 348 346 347 346 346 347 348 345 343 342 342 340 336 338 336 335 335 335 336 338 339 339 339 342 344 345 347
322 320 322 327 323 325 326 333 333 332 337 340 343 342 340 345 347 346 344 344 344 345 347 348 344 343 343 343 343 343 342 342 342 338 336 338 340 341 342 341 343 345 347 346
323 323 323 322 325 324 327 331 335 339 337 338 330 343 340 341 340 343 344 343 343 343 345 347 346 344 343 343 343 343 342 342 343 343 344 343 344 344 344 344 345 344 345 343
324 323 323 324 325 326 327 329 332 337 336 334 332 342 337 335 333 333 340 342 343 343 344 346 346 341 342 342 341 341 341 342 342 343 344 345 345 345 345 345 346 346 346 344
324 323 322 324 324 327 328 329 329 331 328 333 332 333 332 334 337 336 334 340 341 342 342 344 345 341 341 341 341 340 341 341 341 342 342 344 344 345 345 345 346 347 345 344
325 323 325 324 326 325 329 328 331 331 338 335 333 334 334 339 341 339 338 339 340 342 342 342 342 342 341 341 340 340 341 341 341 341 342 343 343 341 342 345 346 347 347 344
323 326 327 326 327 328 328 330 329 331 333 335 335 334 337 342 340 340 340 339 342 342 342 342 341 341 341 341 341 341 341 341 342 342 342 343 343 341 336 342 346 347 346 344
325 327 330 328 325 326 329 330 333 334 337 333 335 334 333 336 335 336 338 339 338 339 340 340 340 340 341 341 341 341 341 342 342 342 343 343 344 344 341 345 346 345 346 343
324 326 328 328 327 326 329 329 331 333 334 338 335 334 334 335 337 338 340 340 338 338 339 340 340 341 341 341 341 341 341 342 342 342 343 344 345 344 348 346 346 345 345 343
325 327 329 327 328 330 331 328 329 332 335 336 334 335 339 340 343 343 345 345 341 338 339 340 340 341 341 341 342 342 342 343 343 345 346 346 348 348 344 344 343 341 338 337
328 330 328 328 327 328 330 330 328 331 333 333 334 334 337 344 346 345 347 344 341 340 339 340 341 342 342 343 343 343 344 347 350 351 349 346 342 341 340 340 339 336 334 333
322 331 328 329 326 326 328 327 328 330 328 331 330 333 334 339 342 345 346 346 346 344 341 342 342 343 344 345 346 350 350 346 343 341 341 341 340 340 337 335 333 330 328 324
325 328 330 329 328 327 327 328 329 329 329 331 332 334 333 338 341 344 346 346 346 345 344 343 344 345 347 348 348 344 341 340 340 342 340 337 334 331 330 328 326 322 317 316
326 330 330 329 330 330 330 330 329 329 330 329 332 333 333 338 337 342 346 343 342 343 344 344 345 347 347 346 344 342 341 342 341 337 333 331 328 325 324 321 317 316 316 317
321 325 329 331 330 330 329 329 329 330 332 331 333 335 332 340 344 347 344 341 341 345 345 345 346 346 346 343 342 341 341 340 335 330 327 324 322 319 317 315 315 315 315 317
319 325 324 329 331 331 331 330 329 330 334 334 333 337 341 343 343 345 342 342 341 344 345 345 345 344 342 341 341 341 339 333 328 324 322 318 317 315 314 312 312 313 313 314
322 323 324 326 331 332 332 331 328 334 335 336 331 336 342 343 344 340 342 342 342 343 345 345 343 341 341 341 340 338 331 325 322 319 317 316 315 313 310 309 311 312 315 315
327 328 326 328 328 332 329 328 333 336 332 331 334 337 342 343 340 341 344 343 343 344 342 341 341 341 340 338 336 331 324 321 319 317 315 313 310 308 309 312 315 317 316 314
330 330 331 332 329 338 328 334 331 330 334 330 331 334 342 343 343 344 342 341 340 340 340 340 339 338 337 334 326 323 321 319 317 314 311 308 309 313 316 318 318 317 316 316
329 326 331 330 336 331 329 329 328 327 329 330 331 331 335 344 343 341 340 339 339 340 340 339 338 338 336 329 325 321 318 316 312 309 309 311 314 313 314 314 312 313 313 312
330 331 337 335 335 336 335 333 331 329 328 330 331 334 336 339 341 340 338 337 339 340 338 338 339 338 332 326 321 317 314 309 308 309 311 313 313 313 310 308 310 310 308 307
325 336 334 334 340 340 339 332 331 332 332 333 332 338 340 340 339 338 336 339 342 338 336 337 335 329 326 319 316 313 309 309 309 311 313 312 308 307 306 309 307 305 304 304
Wind_Speed
6 7 11 13 6 1 8 5 9 11 8 10 12 5 9 18 17 15 14 16 16 16 12 13 13 14 16 18 23 28 30 29 26 24 23 21 20 16 13 12 10 8 9 9
5 13 7 8 7 11 7 5 7 3 7 13 8 12 6 17 21 20 18 18 18 16 15 16 16 16 16 16 18 22 25 28 28 27 24 22 19 18 16 13 9 6 8 12
12 5 17 11 9 10 6 6 4 5 6 4 6 8 9 10 16 19 21 20 20 21 19 18 21 21 19 19 17 16 19 25 26 25 23 22 22 20 17 12 9 8 9 10
7 5 12 11 12 10 10 10 7 8 8 3 9 1 7 13 16 19 23 25 26 26 23 20 24 25 24 21 18 18 20 21 22 23 23 22 20 19 14 10 9 8 9 7
10 13 10 8 6 12 3 4 7 7 8 5 8 4 3 6 15 21 29 30 29 29 26 24 27 27 25 23 22 21 21 22 22 22 21 21 20 18 16 13 11 10 9 9
4 2 6 10 5 12 14 10 12 7 5 4 6 6 3 7 15 20 27 30 31 30 28 25 28 28 27 25 26 25 25 23 23 24 24 24 22 20 20 18 16 15 13 11
3 7 1 3 10 8 7 8 4 4 4 1 1 7 11 11 11 11 23 35 34 32 28 26 30 32 31 31 28 28 28 27 25 26 25 24 23 22 20 19 21 17 16 15
11 10 11 9 9 8 13 9 4 4 4 3 3 6 7 4 6 10 21 23 29 30 29 28 30 33 32 30 28 28 28 28 27 28 26 27 25 24 22 20 21 20 20 18
11 8 4 13 7 11 6 7 2 6 2 3 4 5 12 6 8 7 14 17 22 28 30 30 32 33 32 32 30 29 28 27 26 27 26 26 25 27 23 21 22 22 23 22
6 7 7 10 7 4 6 12 6 1 7 6 4 4 5 4 4 1 7 15 19 20 23 26 32 35 34 33 30 28 29 27 25 25 25 25 24 22 24 26 25 25 25 23
8 2 5 9 12 15 6 5 5 4 2 9 6 5 6 8 5 7 2 11 14 17 21 24 26 28 32 31 31 31 30 29 30 27 26 25 24 23 23 25 27 27 27 25
8 2 5 12 4 0 9 12 10 7 5 1 4 7 4 8 11 8 6 8 13 16 19 20 20 21 23 26 27 29 29 30 29 28 28 26 24 24 22 23 25 26 27 26
11 4 6 7 4 2 6 5 5 7 3 8 10 7 2 6 8 8 7 8 13 15 17 18 19 19 19 20 21 23 24 24 22 22 21 21 21 20 20 20 23 25 25 28
26 8 10 11 12 8 7 9 10 12 7 8 9 9 7 9 10 9 8 9 12 16 17 18 19 18 17 17 16 16 15 15 15 15 14 14 16 16 18 20 19 20 20 16
12 14 12 11 4 5 7 14 15 14 12 12 11 12 13 14 14 15 11 12 14 16 18 20 20 19 18 15 14 13 12 12 11 11 11 11 14 15 14 13 12 11 12 15
4 8 8 18 14 13 18 15 15 13 6 4 4 9 12 13 7 12 15 15 16 19 21 22 22 21 19 17 15 15 14 14 13 12 12 11 8 5 5 7 11 14 17 19
3 7 6 14 9 9 11 18 16 11 9 6 7 11 10 10 15 21 21 21 20 21 22 26 25 23 21 20 19 17 15 13 12 11 9 7 4 5 9 12 15 18 19 18
4 4 5 7 6 14 7 8 19 20 19 15 7 8 15 14 31 24 21 28 26 27 28 28 29 27 25 23 20 17 16 15 12 11 8 4 5 9 13 16 17 18 18 18
10 4 3 7 14 7 11 6 8 12 16 16 17 9 8 5 9 7 23 27 26 24 24 27 30 29 26 23 22 20 18 15 12 8 6 6 9 13 15 17 18 18 18 18
10 4 6 3 15 20 8 18 9 7 11 14 22 14 17 17 8 9 32 32 28 27 28 31 31 29 27 26 22 18 16 13 9 6 6 9 13 16 17 17 17 17 18 18
6 5 12 9 6 9 7 13 19 12 8 12 26 22 27 13 10 13 32 32 32 34 35 34 32 31 29 26 22 17 14 9 4 5 9 13 15 16 15 15 15 15 16 18
9 10 6 5 7 12 9 11 13 12 15 17 20 27 33 17 12 13 25 27 30 36 37 35 34 31 27 22 18 16 13 7 4 9 12 13 13 11 11 10 11 13 15 15
10 7 8 11 8 4 13 6 19 18 14 22 30 29 26 22 17 23 28 33 35 36 38 35 33 31 26 21 15 10 6 6 8 9 9 8 6 6 6 7 9 12 15 16
6 6 6 6 12 12 10 12 11 13 17 20 25 30 33 27 26 28 32 36 41 42 42 38 32 27 23 18 14 11 9 7 5 3 3 2 3 5 7 8 10 10 11 12
2 11 9 6 3 2 11 16 17 16 14 15 21 28 31 32 29 35 39 40 43 44 41 36 30 25 22 18 12 7 5 3 2 0 1 2 2 4 6 7 9 11 12 14
5 3 7 5 7 7 5 17 21 15 15 18 25 26 25 30 35 37 38 45 47 43 40 34 29 24 20 16 10 8 7 4 3 5 6 3 3 4 6 6 8 10 13 15
Wind_Direction
170 187 186 175 191 174 163 177 198 219 191 192 211 223 190 195 205 215 217 217 220 219 213 212 213 214 213 213 213 214 218 220 224 227 232 237 246 254 272 284 294 294 314 317
160 216 170 170 158 148 160 186 226 227 179 206 202 229 211 199 212 213 219 223 224 225 213 211 214 216 213 210 210 212 215 218 219 225 234 244 250 257 266 274 288 297 297 319
200 180 152 147 162 158 196 199 208 231 113 165 175 232 217 210 216 221 226 226 230 226 217 210 215 215 213 213 209 208 210 215 219 227 235 241 249 258 259 273 285 286 300 318
209 149 158 171 186 188 227 206 195 188 180 230 201 260 208 205 210 217 224 227 227 226 220 213 219 218 216 211 209 207 206 207 212 218 227 234 241 246 251 258 268 278 301 309
183 178 178 185 206 190 211 138 193 207 191 182 192 253 124 198 224 218 219 223 226 226 220 213 219 223 222 219 214 215 215 215 216 219 224 228 235 246 255 259 259 266 281 286
137 169 207 216 160 183 143 104 86 106 173 220 177 240 219 193 217 219 220 218 224 224 222 215 222 224 226 226 226 223 225 223 223 226 230 237 243 249 258 265 271 275 282 282
162 195 184 191 149 165 171 168 170 167 190 147 325 205 261 255 241 222 215 215 215 219 217 211 215 222 224 225 226 229 229 228 227 232 235 241 247 255 263 270 276 280 283 280
185 199 193 195 196 173 188 203 210 173 185 158 128 219 243 270 294 242 228 221 216 219 213 210 215 221 222 223 225 227 231 233 231 235 240 248 253 259 264 271 280 285 281 279
179 217 163 188 176 176 167 191 195 106 64 203 173 254 277 262 260 283 215 203 206 213 211 208 216 224 224 225 224 226 229 234 234 236 242 251 258 265 268 273 278 282 284 282
180 195 189 172 132 132 210 146 167 205 160 211 186 271 254 282 326 84 167 196 206 209 208 208 220 227 227 229 229 229 231 234 240 241 244 252 260 268 271 270 274 276 280 278
156 248 147 160 204 171 154 174 73 116 301 209 220 230 219 247 292 311 203 200 204 207 208 211 217 227 235 234 233 233 234 237 240 247 250 255 258 261 272 269 269 274 277 273
177 177 188 191 109 280 204 186 179 199 191 199 245 220 199 250 274 265 259 217 209 216 219 222 223 225 233 235 236 237 239 243 245 249 254 259 264 260 275 270 268 275 275 277
172 200 183 161 156 129 199 164 138 108 132 190 208 209 221 263 253 238 234 216 213 214 213 213 215 220 226 231 235 235 238 244 252 259 262 262 262 262 267 268 273 279 284 286
171 184 214 204 194 155 168 177 177 193 200 189 221 223 225 223 228 216 201 202 204 206 206 203 203 207 210 218 225 229 234 239 242 248 252 254 252 254 265 272 282 291 291 293
183 216 207 219 193 177 174 185 181 191 199 208 215 209 222 213 212 208 194 190 188 186 191 194 191 190 193 195 198 201 205 210 215 215 218 227 245 257 271 281 280 283 306 323
175 209 192 224 217 236 245 232 203 208 180 205 187 223 236 240 202 192 196 193 188 186 185 183 182 182 178 175 178 175 173 180 193 209 222 226 245 253 267 285 308 320 322 322
143 177 172 228 219 217 245 230 212 192 189 192 188 231 169 197 208 211 199 198 191 190 186 181 177 174 169 165 168 174 184 191 190 193 200 203 220 277 305 312 315 314 314 319
131 137 203 212 162 229 247 245 216 225 233 214 224 226 202 209 213 214 207 195 194 191 184 178 174 169 168 170 175 181 176 175 179 183 188 219 274 292 299 306 316 324 329 330
203 180 178 208 210 254 240 178 174 195 237 206 213 206 194 174 151 221 207 203 197 185 177 172 171 170 168 174 173 173 170 174 174 182 213 259 290 303 317 322 323 325 328 330
184 208 208 153 216 228 235 217 209 162 247 201 205 192 170 156 188 223 199 195 189 180 174 171 170 168 168 166 167 168 169 169 180 212 271 303 316 317 317 316 319 324 328 330
163 178 204 212 247 246 217 195 161 195 232 194 200 193 165 186 206 215 190 185 186 182 175 172 167 167 165 162 162 166 168 177 207 294 312 307 307 306 309 315 321 327 330 331
167 166 182 189 214 248 161 142 200 219 221 234 193 187 187 186 194 170 169 165 168 168 166 164 163 160 157 158 167 176 174 196 258 285 293 302 305 311 320 322 322 325 327 332
203 210 186 198 208 219 194 238 212 222 207 203 195 198 189 186 173 163 161 164 163 160 160 162 162 157 157 163 168 188 187 230 257 278 297 305 320 339 339 323 318 317 319 327
219 182 199 160 219 225 231 231 246 230 220 216 206 196 190 180 172 162 160 158 159 162 163 164 163 162 164 169 179 198 219 242 263 295 321 332 360 348 343 337 339 345 355 2
178 163 178 230 261 217 232 229 218 214 209 196 187 190 187 187 171 165 159 159 161 162 162 164 165 167 167 177 180 210 239 199 117 357 153 116 24 355 350 353 7 12 6 1
188 199 195 202 203 209 191 215 203 208 200 185 178 175 183 187 170 165 160 164 163 160 160 162 165 167 169 174 180 191 179 149 129 141 137 128 92 45 41 43 23 21 17 11